Date String (YYYY-MM-DD hh:mm:ss) UTC,Instrument flags,absolute air pressure of the measurement (hPa),sample flow rate (lpm),inlet stack bypass flow (lpm),air temperature of the measurement (°C),ambient temperature measured by the external sensor (°C),aerosol sample conditioner tube jacket temperature (°C),OPC LED temperature (°C),internal box temperature (°C),relative humidity of the measurement (%),span deviation,mass concentration of particles derived from Lorenz-Mie calculation of OPC scattering (μg/m³),mass concentration of particles derived from Lorenz-Mie calculation of OPC scattering (μg/m³),mass concentration of particles derived from Lorenz-Mie calculation of OPC scattering (μg/m³)
DateTimeUTC,F1_M11,P_M11,Q1_M11,Q2_M11,T1_M11,T2_M11,T3_M11,T4_M11,T5_M11,U1_M11,ZSPAN_M11,X2_M11,X0_M11,X1_M11
2023-06-08 11:00:00,SystemResetWarning,0830.3,5.01,000.00,029.7,028.0,000.0,038.3,031.2,23.3,0000.0,0002.73,0007.46,0002.17
2023-06-08 11:01:00,SystemResetWarning,0830.3,5.00,000.00,029.7,028.0,000.0,038.3,031.2,23.1,0000.0,0002.68,0007.41,0002.16
2023-06-08 11:02:00,SystemResetWarning,0830.3,5.00,000.00,029.7,028.0,000.0,038.3,031.2,22.9,0000.0,0002.66,0006.56,0002.17
2023-06-08 11:03:00,SystemResetWarning,0830.3,5.00,000.00,029.7,028.0,000.0,038.3,031.2,22.9,0000.0,0002.63,0005.93,0002.18
2023-06-08 11:04:00,SystemResetWarning,0830.3,5.00,000.00,029.7,028.0,000.0,038.3,031.2,22.7,0000.0,0002.64,0005.89,0002.19
2023-06-08 11:05:00,SystemResetWarning,0830.3,5.00,000.00,029.7,028.0,000.0,038.3,031.2,22.7,0000.0,0002.64,0005.84,0002.20
2023-06-08 11:06:00,SystemResetWarning,0830.3,5.00,000.00,029.7,028.0,000.0,038.3,031.2,22.6,0000.0,0002.62,0005.78,0002.21
2023-06-08 11:07:00,SystemResetWarning,0830.3,5.00,000.00,029.7,028.0,000.0,038.3,031.2,22.6,0000.0,0002.62,0006.34,0002.21
2023-06-08 11:08:00,SystemResetWarning,0830.3,5.00,000.00,029.7,028.0,000.0,038.3,031.2,22.6,0000.0,0002.67,0004.68,0002.22
2023-06-08 11:09:00,SystemResetWarning,0830.3,5.01,000.00,029.7,028.0,000.0,038.3,031.2,22.8,0000.0,0002.71,0004.70,0002.22
2023-06-08 11:10:00,SystemResetWarning,0830.3,5.00,000.00,029.7,028.0,000.0,038.3,031.2,22.8,0000.0,0002.71,0004.63,0002.22
2023-06-08 11:11:00,SystemResetWarning,0830.3,5.00,000.00,029.7,028.0,000.0,038.3,031.2,22.7,0000.0,0002.73,0004.63,0002.22
2023-06-08 11:12:00,SystemResetWarning,0830.3,5.00,000.00,029.7,028.0,000.0,038.3,031.2,22.7,0000.0,0002.73,0004.63,0002.23
2023-06-08 11:13:00,SystemResetWarning,0830.3,5.00,000.00,029.7,028.0,000.0,038.3,031.2,23.2,0000.0,0002.72,0004.62,0002.22
2023-06-08 11:14:00,SystemResetWarning,0830.3,5.00,000.00,029.8,028.0,000.0,038.3,031.2,23.1,0000.0,0002.76,0004.83,0002.23
2023-06-08 11:15:00,SystemResetWarning,0830.3,5.01,000.00,029.8,028.0,000.0,038.3,031.2,23.0,0000.0,0002.79,0005.03,0002.23
2023-06-08 11:16:00,SystemResetWarning,0830.3,4.99,000.00,029.8,028.0,000.0,038.3,031.2,22.8,0000.0,0002.80,0005.01,0002.24
2023-06-08 11:17:00,SystemResetWarning,0830.3,5.00,000.00,029.8,028.0,000.0,038.3,031.1,22.6,0000.0,0002.77,0004.77,0002.23
2023-06-08 11:18:00,SystemResetWarning,0830.3,5.01,000.00,029.8,028.0,000.0,038.3,031.2,22.7,0000.0,0002.77,0004.17,0002.24
2023-06-08 11:19:00,SystemResetWarning,0830.3,5.01,000.00,029.8,028.0,000.0,038.3,031.2,22.7,0000.0,0002.74,0004.10,0002.24
2023-06-08 11:20:00,SystemResetWarning,0830.3,5.00,000.00,029.8,028.0,000.0,038.3,031.2,22.5,0000.0,0002.71,0004.04,0002.24
2023-06-08 11:21:00,SystemResetWarning,0830.4,5.00,000.00,029.8,028.1,000.0,038.3,031.2,22.4,0000.0,0002.72,0004.96,0002.23
2023-06-08 11:22:00,SystemResetWarning,0830.4,5.00,000.00,029.8,028.1,000.0,038.3,031.2,22.4,0000.0,0002.71,0004.96,0002.22
2023-06-08 11:23:00,SystemResetWarning,0830.4,5.01,000.00,029.8,028.1,000.0,038.3,031.2,22.4,0000.0,0002.70,0004.89,0002.22
2023-06-08 11:24:00,SystemResetWarning,0830.4,4.99,000.00,029.8,028.1,000.0,038.4,031.2,22.7,0000.0,0002.70,0004.89,0002.23
2023-06-08 11:25:00,SystemResetWarning,0830.4,5.00,000.00,029.8,028.1,000.0,038.4,031.2,22.9,0000.0,0002.66,0004.70,0002.23
2023-06-08 11:26:00,SystemResetWarning,0830.4,4.99,000.00,029.8,028.1,000.0,038.4,031.2,22.7,0000.0,0002.62,0004.52,0002.23
2023-06-08 11:27:00,SystemResetWarning,0830.4,5.00,000.00,029.8,028.1,000.0,038.4,031.2,22.6,0000.0,0002.62,0004.51,0002.23
2023-06-08 11:28:00,SystemResetWarning,0830.4,5.00,000.00,029.8,028.1,000.0,038.4,031.2,22.9,0000.0,0002.65,0004.58,0002.23
2023-06-08 11:29:00,SystemResetWarning,0830.4,5.00,000.00,029.8,028.1,000.0,038.4,031.2,22.7,0000.0,0002.62,0004.48,0002.22
2023-06-08 11:30:00,SystemResetWarning,0830.3,5.00,000.00,029.8,028.1,000.0,038.4,031.2,22.7,0000.0,0002.61,0004.44,0002.23
2023-06-08 11:31:00,SystemResetWarning,0830.3,5.00,000.00,029.8,028.1,000.0,038.4,031.2,22.8,0000.0,0002.60,0004.37,0002.24
2023-06-08 11:32:00,SystemResetWarning,0830.3,4.99,000.00,029.8,028.1,000.0,038.4,031.2,22.8,0000.0,0002.58,0003.48,0002.24
2023-06-08 11:33:00,SystemResetWarning,0830.3,4.99,000.00,029.8,028.0,000.0,038.4,031.2,22.8,0000.0,0002.57,0003.41,0002.26
2023-06-08 11:34:00,SystemResetWarning,0830.3,5.00,000.00,029.8,028.0,000.0,038.4,031.2,22.7,0000.0,0002.61,0003.53,0002.26
2023-06-08 11:35:00,SystemResetWarning,0830.4,5.00,000.00,029.8,028.1,000.0,038.4,031.2,22.8,0000.0,0002.63,0003.61,0002.25
2023-06-08 11:36:00,SystemResetWarning,0830.4,5.00,000.00,029.8,028.1,000.0,038.4,031.2,22.8,0000.0,0002.63,0003.60,0002.24
2023-06-08 11:37:00,SystemResetWarning,0830.4,5.00,000.00,029.8,028.1,000.0,038.4,031.2,22.9,0000.0,0002.64,0003.56,0002.24
2023-06-08 11:38:00,SystemResetWarning,0830.3,5.00,000.00,029.8,028.1,000.0,038.4,031.2,22.9,0000.0,0002.65,0003.57,0002.24
2023-06-08 11:39:00,SystemResetWarning,0830.4,5.01,000.00,029.8,028.1,000.0,038.4,031.2,22.9,0000.0,0002.63,0003.62,0002.23
2023-06-08 11:40:00,SystemResetWarning,0830.4,5.00,000.00,029.8,028.1,000.0,038.4,031.2,22.8,0000.0,0002.65,0004.05,0002.23
2023-06-08 11:41:00,SystemResetWarning,0830.4,5.00,000.00,029.8,028.1,000.0,038.4,031.2,22.8,0000.0,0002.68,0004.36,0002.22
2023-06-08 11:42:00,SystemResetWarning,0830.4,5.00,000.00,029.8,028.1,000.0,038.4,031.2,22.7,0000.0,0002.68,0004.38,0002.22
2023-06-08 11:43:00,SystemResetWarning,0830.4,5.00,000.00,029.8,028.1,000.0,038.4,031.2,22.7,0000.0,0002.70,0004.53,0002.22
2023-06-08 11:44:00,SystemResetWarning,0830.4,5.00,000.00,029.8,028.1,000.0,038.4,031.2,22.7,0000.0,0002.72,0004.73,0002.22
2023-06-08 11:45:00,SystemResetWarning,0830.5,5.00,000.00,029.8,028.1,000.0,038.4,031.2,22.7,0000.0,0002.74,0004.78,0002.21
2023-06-08 11:46:00,SystemResetWarning,0830.4,5.00,000.00,029.8,028.1,000.0,038.4,031.2,22.6,0000.0,0002.75,0004.80,0002.22
2023-06-08 11:47:00,SystemResetWarning,0830.4,5.00,000.00,029.8,028.1,000.0,038.4,031.2,22.7,0000.0,0002.75,0005.08,0002.23
2023-06-08 11:48:00,SystemResetWarning,0830.4,5.01,000.00,029.8,028.1,000.0,038.4,031.2,22.7,0000.0,0002.74,0005.55,0002.22
2023-06-08 11:49:00,SystemResetWarning,0830.4,5.00,000.00,029.8,028.1,000.0,038.4,031.2,22.6,0000.0,0002.73,0005.59,0002.22
2023-06-08 11:50:00,SystemResetWarning,0830.4,5.00,000.00,029.8,028.1,000.0,038.4,031.3,22.6,0000.0,0002.69,0005.45,0002.22
2023-06-08 11:51:00,SystemResetWarning,0830.4,4.98,000.00,029.8,028.1,000.0,038.4,031.2,22.7,0000.0,0002.69,0005.09,0002.22
2023-06-08 11:52:00,SystemResetWarning,0830.4,5.01,000.00,029.8,028.1,000.0,038.4,031.2,22.6,0000.0,0002.69,0004.85,0002.23
2023-06-08 11:53:00,SystemResetWarning,0830.4,5.01,000.00,029.8,028.1,000.0,038.4,031.2,22.6,0000.0,0002.70,0005.18,0002.23
2023-06-08 11:54:00,SystemResetWarning,0830.4,5.00,000.00,029.8,028.1,000.0,038.4,031.2,22.5,0000.0,0002.66,0005.29,0002.22
2023-06-08 11:55:00,SystemResetWarning,0830.4,5.01,000.00,029.8,028.1,000.0,038.4,031.2,22.6,0000.0,0002.67,0005.13,0002.22
2023-06-08 11:56:00,SystemResetWarning,0830.4,4.99,000.00,029.8,028.1,000.0,038.4,031.2,22.7,0000.0,0002.65,0005.15,0002.21
2023-06-08 11:57:00,SystemResetWarning,0830.4,4.99,000.00,029.8,028.1,000.0,038.4,031.3,22.5,0000.0,0002.58,0005.02,0002.20
2023-06-08 11:58:00,SystemResetWarning,0830.4,5.01,000.00,029.8,028.1,000.0,038.4,031.3,22.5,0000.0,0002.59,0004.92,0002.20
2023-06-08 11:59:00,SystemResetWarning,0830.6,5.01,000.00,029.8,028.1,000.0,038.4,031.2,22.6,0000.0,0002.59,0004.34,0002.20
